Location: Chuathbaluk
(61.5726°N, 159.2454°W)
Time: 16:57:20
(UTC+00:00)

ITAMSAT 1 - Pass Details

Date: 21 January 2021
Orbit: 784 x 796 km, 98.9° (Epoch: 05 March)

Event Time Altitude Azimuth Distance (km) Brightness Sun altitude
Rises 16:28:57 0° 20° (NNE) 3,291 11.1 -19.6°
Reaches altitude 10° 16:31:35 10° 32° (NNE) 2,358 10.4 -19.3°
Maximum altitude 16:36:05 29° 92° (E) 1,420 9.7 -18.7°
Drops below altitude 10° 16:40:34 10° 152° (SSE) 2,347 10.6 -18.2°
Sets 16:43:11 0° 164° (SSE) 3,273 11.2 -17.9°
